CST,Max TemperatureF,Mean TemperatureF,Min TemperatureF,Max Dew PointF,MeanDew PointF,Min DewpointF,Max Humidity, Mean Humidity, Min Humidity, Max Sea Level PressureIn, Mean Sea Level PressureIn, Min Sea Level PressureIn, Max VisibilityMiles, Mean VisibilityMiles, Min VisibilityMiles, Max Wind SpeedMPH, Mean Wind SpeedMPH, Max Gust SpeedMPH,PrecipitationIn, CloudCover, Events, WindDirDegrees
2013-11-1,79,65,51,58,51,45,96,69,42,30.01,29.89,29.81,10,10,10,15,6,20,0.00,0,,203
2013-11-2,72,61,49,49,43,36,83,55,27,30.26,30.18,30.04,10,10,10,21,9,26,0.00,0,,342
2013-11-3,69,58,46,51,44,39,80,59,37,30.22,30.15,30.07,10,10,5,15,7,20,0.00,0,,126
2013-11-4,69,63,56,65,61,47,100,86,72,30.09,30.03,30.00,10,6,2,13,8,18,0.31,7,Rain,117
2013-11-5,72,68,63,70,67,63,100,97,93,30.06,30.01,29.95,10,5,2,23,6,29,0.37,8,Rain,148
2013-11-6,72,61,49,71,59,45,100,89,77,30.31,30.13,29.98,10,9,2,20,9,25,0.19,6,Rain,331
2013-11-7,66,55,43,44,40,35,86,60,34,30.44,30.38,30.32,10,10,10,17,9,24,0.00,0,,11
2013-11-8,65,58,51,47,42,37,77,57,37,30.38,30.29,30.18,10,10,10,16,5,22,0.00,1,,85
2013-11-9,66,60,54,54,50,45,93,80,66,30.22,30.18,30.14,10,10,9,9,4,12,0.05,4,Rain,104
2013-11-10,72,63,54,53,51,44,86,63,40,30.32,30.25,30.20,10,10,10,12,5,14,0.00,4,,47
2013-11-11,73,62,50,53,50,47,89,69,49,30.28,30.22,30.17,10,10,10,8,2,21,0.00,0,,39
2013-11-12,60,51,42,54,45,31,86,71,56,30.61,30.45,30.25,10,10,10,26,13,33,0.00,4,,3
2013-11-13,55,45,35,31,27,22,76,52,28,30.66,30.55,30.41,10,10,10,15,7,20,0.00,0,,35
2013-11-14,61,48,34,49,39,30,89,70,50,30.40,30.22,30.07,10,9,4,14,5,18,T,1,,137
2013-11-15,77,64,51,63,55,46,93,77,60,30.06,29.98,29.88,10,10,10,16,6,24,0.00,3,,169
2013-11-16,80,71,61,72,67,61,100,85,69,29.93,29.85,29.76,10,8,0,23,10,26,0.00,6,Fog,168
2013-11-17,84,76,68,72,70,66,97,78,58,29.94,29.83,29.78,10,10,2,16,7,25,0.00,5,,192
2013-11-18,80,72,63,70,61,41,100,73,45,30.13,30.02,29.94,10,6,0,15,7,20,0.00,4,Fog,60
2013-11-19,70,62,54,45,42,38,66,49,31,30.16,30.08,30.03,10,10,10,15,7,20,0.00,0,,91
2013-11-20,70,60,50,64,53,37,87,71,54,30.04,29.98,29.93,10,10,9,14,7,17,0.01,6,Rain,121
2013-11-21,79,73,67,74,71,64,100,90,79,30.06,30.00,29.95,10,7,1,15,8,18,1.13,7,Rain-Thunderstorm,143
2013-11-22,73,56,39,72,47,37,93,88,82,30.36,30.24,30.06,10,9,1,26,14,32,0.77,8,Rain-Thunderstorm,337
2013-11-23,46,43,39,43,40,37,100,93,86,30.45,30.39,30.34,10,9,4,22,14,30,0.02,8,Rain,359
2013-11-24,45,41,36,35,32,28,92,75,57,30.47,30.40,30.34,10,9,5,20,11,26,0.38,8,Rain,26
2013-11-25,40,39,37,38,37,35,100,96,92,30.33,30.18,30.07,10,6,1,20,10,26,1.33,8,Rain,11
2013-11-26,45,42,38,38,36,31,92,81,70,30.31,30.18,30.10,10,8,2,20,12,26,0.01,7,Rain-Snow,327
2013-11-27,48,40,31,31,26,21,78,56,34,30.47,30.40,30.32,10,10,10,18,7,22,0.00,0,,334
2013-11-28,54,42,30,36,32,27,92,69,46,30.47,30.42,30.38,10,10,10,8,2,18,0.00,0,,113
2013-11-29,62,49,35,41,38,33,92,67,42,30.52,30.44,30.38,10,10,8,7,3,9,0.00,0,,85
2013-11-30,67,54,41,53,46,38,89,73,56,30.39,30.31,30.21,10,10,10,14,5,17,0.00,7,,147